Weather History for Silver City, NM

Change the Weather History Date:

Monday, April 8, 2013

  Actual Average (KDMN) Record (KDMN)
Temperature  
Mean Temperature 57 °F -  
Max Temperature 73 °F 76 °F 91 °F (1989)
Min Temperature 41 °F 38 °F 28 °F (1968)
Degree Days  
Heating Degree Days 8    
Growing Degree Days 7 (Base 50)    
Moisture  
Dew Point 24 °F    
Average Humidity 26    
Maximum Humidity 42    
Minimum Humidity 13    
Precipitation  
Precipitation 0.00 in - - ()
Sea Level Pressure  
Sea Level Pressure 29.73 in    
Wind  
Wind Speed 15 mph (WSW)    
Max Wind Speed 32 mph    
Max Gust Speed 44 mph    
Visibility 9 miles    
Events      
Averages and records for this station are not official NWS values.
T = Trace of Precipitation, MM = Missing Value Source: NWS Daily Summary

Daily Weather History Graph

Daily Weather History Graph

Search for Another Location

Airport:

Trip Planner

Search our weather history database for the weather conditions in past years. The results will help you decide how hot, cold, wet, or windy it might be!

Date:

Astronomy

Apr. 08, 2013 Rise Set
Actual Time 6:51 AM MDT 7:37 PM MDT
Civil Twilight 6:26 AM MDT 8:02 PM MDT
Nautical Twilight 5:56 AM MDT 8:32 PM MDT
Astronomical Twilight 5:26 AM MDT 9:02 PM MDT
Moon 5:38 AM MDT (4/8) 6:18 PM MDT (4/8)
Length of Visible Light 13h 36m
Length of Day
12h 46m
Waning Crescent, 3% of the Moon is Illuminated
Apr 8
Waning Crescent
Apr 10
New
Apr 18
First Quarter
Apr 25
Full
May 2
Last Quarter

Hourly Weather History & Observations

Time (MDT) Temp. Windchill Dew Point Humidity Pressure Visibility Wind Dir Wind Speed Gust Speed Precip Events Conditions
12:15 AM 53.6 °F - 21.2 °F 28% 29.90 in 10.0 mi NNW 10.4 mph - N/A   Clear
12:35 AM 53.6 °F - 23.0 °F 30% 29.90 in 10.0 mi NW 12.7 mph - N/A   Clear
12:55 AM 53.6 °F - 21.2 °F 28% 29.89 in 10.0 mi NNW 12.7 mph - N/A   Clear
1:15 AM 50.0 °F - 19.4 °F 30% 29.89 in 10.0 mi NNW 11.5 mph - N/A   Clear
1:35 AM 48.2 °F - 19.4 °F 32% 29.88 in 10.0 mi NNW 11.5 mph - N/A   Clear
1:55 AM 48.2 °F - 19.4 °F 32% 29.88 in 10.0 mi NNW 10.4 mph - N/A   Clear
2:15 AM 46.4 °F 41.1 °F 19.4 °F 34% 29.88 in 10.0 mi North 11.5 mph - N/A   Clear
2:35 AM 46.4 °F 41.1 °F 19.4 °F 34% 29.87 in 10.0 mi NNW 11.5 mph - N/A   Clear
2:55 AM 44.6 °F 39.2 °F 21.2 °F 39% 29.87 in 10.0 mi North 10.4 mph - N/A   Clear
3:15 AM 44.6 °F 39.7 °F 19.4 °F 37% 29.87 in 10.0 mi NNW 9.2 mph - N/A   Clear
3:35 AM 41.0 °F 34.7 °F 19.4 °F 42% 29.86 in 10.0 mi NNW 10.4 mph - N/A   Clear
3:55 AM 46.4 °F 41.5 °F 23.0 °F 40% 29.86 in 10.0 mi NW 10.4 mph - N/A   Clear
4:15 AM 44.6 °F 41.4 °F 21.2 °F 39% 29.85 in 10.0 mi West 5.8 mph - N/A   Clear
4:35 AM 50.0 °F - 23.0 °F 35% 29.85 in 10.0 mi West 10.4 mph - N/A   Clear
4:55 AM 50.0 °F - 23.0 °F 35% 29.85 in 10.0 mi West 9.2 mph - N/A   Clear
5:15 AM 53.6 °F - 23.0 °F 30% 29.84 in 10.0 mi West 8.1 mph - N/A   Clear
5:35 AM 53.6 °F - 23.0 °F 30% 29.84 in 10.0 mi West 10.4 mph - N/A   Clear
5:55 AM 53.6 °F - 23.0 °F 30% 29.84 in 10.0 mi WNW 10.4 mph - N/A   Clear
6:15 AM 53.6 °F - 23.0 °F 30% 29.84 in 10.0 mi West 5.8 mph - N/A   Clear
6:35 AM 53.6 °F - 23.0 °F 30% 29.84 in 10.0 mi West 5.8 mph - N/A   Clear
6:55 AM 53.6 °F - 24.8 °F 33% 29.84 in 10.0 mi WSW 3.5 mph - N/A   Clear
7:15 AM 53.6 °F - 24.8 °F 33% 29.84 in 10.0 mi South 5.8 mph - N/A   Clear
7:35 AM 53.6 °F - 24.8 °F 33% 29.84 in 10.0 mi SW 3.5 mph - N/A   Clear
7:55 AM 53.6 °F - 24.8 °F 33% 29.85 in 10.0 mi SW 3.5 mph - N/A   Clear
8:15 AM 55.4 °F - 24.8 °F 31% 29.85 in 10.0 mi Calm Calm - N/A   Clear
8:35 AM 57.2 °F - 26.6 °F 31% 29.85 in 10.0 mi SW 4.6 mph - N/A   Clear
8:55 AM 57.2 °F - 30.2 °F 36% 29.85 in 10.0 mi SW 8.1 mph - N/A   Clear
9:15 AM 59.0 °F - 28.4 °F 31% 29.84 in 10.0 mi SW 17.3 mph 21.9 mph N/A   Clear
9:35 AM 60.8 °F - 26.6 °F 27% 29.83 in 10.0 mi SW 16.1 mph 21.9 mph N/A   Clear
9:55 AM 62.6 °F - 26.6 °F 26% 29.83 in 10.0 mi SW 16.1 mph 24.2 mph N/A   Clear
10:15 AM 62.6 °F - 24.8 °F 24% 29.82 in 10.0 mi SW 18.4 mph 26.5 mph N/A   Clear
10:35 AM 62.6 °F - 24.8 °F 24% 29.81 in 10.0 mi SW 21.9 mph 32.2 mph N/A   Clear
10:55 AM 64.4 °F - 24.8 °F 22% 29.80 in 10.0 mi SW 21.9 mph 32.2 mph N/A   Clear
11:15 AM 64.4 °F - 24.8 °F 22% 29.79 in 10.0 mi SSW 24.2 mph 32.2 mph N/A   Clear
11:35 AM 66.2 °F - 24.8 °F 21% 29.78 in 10.0 mi SW 21.9 mph 29.9 mph N/A   Clear
11:55 AM 66.2 °F - 24.8 °F 21% 29.77 in 9.0 mi SW 16.1 mph 31.1 mph N/A   Clear
12:15 PM 66.2 °F - 26.6 °F 23% 29.76 in 10.0 mi SW 16.1 mph 27.6 mph N/A   Clear
12:35 PM 68.0 °F - 26.6 °F 21% 29.75 in 10.0 mi WSW 17.3 mph 33.4 mph N/A   Clear
12:55 PM 69.8 °F - 24.8 °F 18% 29.73 in 10.0 mi WSW 20.7 mph 34.5 mph N/A   Clear
1:15 PM 68.0 °F - 23.0 °F 18% 29.72 in 10.0 mi SW 20.7 mph 33.4 mph N/A   Clear
1:35 PM 69.8 °F - 24.8 °F 18% 29.71 in 10.0 mi SW 19.6 mph 34.5 mph N/A   Clear
1:55 PM 71.6 °F - 23.0 °F 16% 29.69 in 10.0 mi WSW 27.6 mph 34.5 mph N/A   Clear
2:15 PM 71.6 °F - 23.0 °F 16% 29.68 in 7.0 mi WSW 24.2 mph 35.7 mph N/A   Clear
2:35 PM 71.6 °F - 23.0 °F 16% 29.67 in 6.0 mi SW 21.9 mph 35.7 mph N/A   Haze
2:55 PM 73.4 °F - 23.0 °F 15% 29.66 in 9.0 mi WSW 23.0 mph 33.4 mph N/A   Clear
3:15 PM 73.4 °F - 21.2 °F 14% 29.65 in 7.0 mi WSW 20.7 mph 40.3 mph N/A   Clear
3:35 PM 73.4 °F - 23.0 °F 15% 29.63 in 9.0 mi SW 18.4 mph 33.4 mph N/A   Clear
3:55 PM 73.4 °F - 23.0 °F 15% 29.61 in 9.0 mi SW 24.2 mph 39.1 mph N/A   Clear
4:15 PM 73.4 °F - 21.2 °F 14% 29.60 in 8.0 mi SSW 27.6 mph 38.0 mph N/A   Partly Cloudy
4:35 PM 73.4 °F - 21.2 °F 14% 29.58 in 7.0 mi SW 29.9 mph 40.3 mph N/A   Clear
4:55 PM 73.4 °F - 19.4 °F 13% 29.58 in 7.0 mi West 32.2 mph 43.7 mph N/A   Clear
5:15 PM 73.4 °F - 19.4 °F 13% 29.57 in 5.0 mi SW 32.2 mph 43.7 mph N/A   Haze
5:35 PM 73.4 °F - 19.4 °F 13% 29.56 in 8.0 mi SW 28.8 mph 39.1 mph N/A   Clear
5:55 PM 71.6 °F - 21.2 °F 15% 29.57 in 5.0 mi SW 28.8 mph 43.7 mph N/A   Haze
6:15 PM 69.8 °F - 23.0 °F 17% 29.57 in 5.0 mi SSW 31.1 mph 41.4 mph N/A   Haze
6:35 PM 68.0 °F - 24.8 °F 20% 29.57 in 3.0 mi SW 32.2 mph 41.4 mph N/A   Haze
6:55 PM 68.0 °F - 26.6 °F 21% 29.57 in 5.0 mi SW 29.9 mph 39.1 mph N/A   Haze
7:15 PM 66.2 °F - 26.6 °F 23% 29.58 in 7.0 mi SW 26.5 mph 36.8 mph N/A   Clear
7:35 PM 66.2 °F - 26.6 °F 23% 29.58 in 8.0 mi SW 27.6 mph 36.8 mph N/A   Clear
7:55 PM 64.4 °F - 26.6 °F 24% 29.58 in 7.0 mi SW 26.5 mph 40.3 mph N/A   Clear
8:15 PM 64.4 °F - 26.6 °F 24% 29.59 in 8.0 mi SW 25.3 mph 39.1 mph N/A   Clear
8:35 PM 62.6 °F - 26.6 °F 26% 29.59 in 9.0 mi SW 19.6 mph 31.1 mph N/A   Clear
8:55 PM 62.6 °F - 26.6 °F 26% 29.59 in 7.0 mi SW 24.2 mph 36.8 mph N/A   Clear
9:15 PM 62.6 °F - 26.6 °F 26% 29.59 in 5.0 mi SW 21.9 mph 29.9 mph N/A   Haze
9:35 PM 60.8 °F - 28.4 °F 29% 29.60 in 5.0 mi WSW 23.0 mph 32.2 mph N/A   Haze
9:55 PM 60.8 °F - 30.2 °F 31% 29.60 in 7.0 mi SW 26.5 mph 38.0 mph N/A   Clear
10:15 PM 59.0 °F - 28.4 °F 31% 29.60 in 10.0 mi WSW 21.9 mph 36.8 mph N/A   Clear
10:35 PM 59.0 °F - 28.4 °F 31% 29.60 in 7.0 mi SW 28.8 mph 36.8 mph N/A   Clear
10:55 PM 59.0 °F - 28.4 °F 31% 29.59 in 7.0 mi WSW 21.9 mph 31.1 mph N/A   Clear
11:15 PM 57.2 °F - 28.4 °F 33% 29.60 in 7.0 mi WSW 16.1 mph 38.0 mph N/A   Clear
11:35 PM 57.2 °F - 28.4 °F 33% 29.59 in 7.0 mi SW 18.4 mph 29.9 mph N/A   Clear
11:55 PM 57.2 °F - 28.4 °F 33% 29.60 in 9.0 mi WSW 20.7 mph 32.2 mph N/A   Clear